Year,Month,Day,Hour,Minute,Value (Times are PST for temperature in C)
2012,03,23,00,00,5.30
2012,03,23,00,01,5.20
2012,03,23,00,02,5.20
2012,03,23,00,03,5.20
2012,03,23,00,04,5.20
2012,03,23,00,05,5.10
2012,03,23,00,06,5.10
2012,03,23,00,07,5.10
2012,03,23,00,08,5.10
2012,03,23,00,09,5.10
2012,03,23,00,10,5.10
2012,03,23,00,11,5.10
2012,03,23,00,12,5.00
2012,03,23,00,13,4.90
2012,03,23,00,14,4.90
2012,03,23,00,15,4.90
2012,03,23,00,16,4.90
2012,03,23,00,17,4.90
2012,03,23,00,18,4.90
2012,03,23,00,19,4.90
2012,03,23,00,20,4.90
2012,03,23,00,21,4.90
2012,03,23,00,22,4.90
2012,03,23,00,23,4.90
2012,03,23,00,24,4.90
2012,03,23,00,25,4.90
2012,03,23,00,26,4.80
2012,03,23,00,27,4.80
2012,03,23,00,28,4.80
2012,03,23,00,29,4.80
2012,03,23,00,30,4.80
2012,03,23,00,31,4.80
2012,03,23,00,32,4.80
2012,03,23,00,33,4.80
2012,03,23,00,34,4.80
2012,03,23,00,35,4.80
2012,03,23,00,36,4.80
2012,03,23,00,37,4.80
2012,03,23,00,38,4.80
2012,03,23,00,39,4.80
2012,03,23,00,40,4.80
2012,03,23,00,41,4.80
2012,03,23,00,42,4.80
2012,03,23,00,43,4.80
2012,03,23,00,44,4.80
2012,03,23,00,45,4.80
2012,03,23,00,46,4.80
2012,03,23,00,47,4.80
2012,03,23,00,48,4.80
2012,03,23,00,49,4.80
2012,03,23,00,50,4.70
2012,03,23,00,51,4.70
2012,03,23,00,52,4.70
2012,03,23,00,53,4.70
2012,03,23,00,54,4.70
2012,03,23,00,55,4.70
2012,03,23,00,56,4.70
2012,03,23,00,57,4.70
2012,03,23,00,58,4.70
2012,03,23,00,59,4.70
2012,03,23,01,00,4.70
2012,03,23,01,01,4.70
2012,03,23,01,02,4.70
2012,03,23,01,03,4.60
2012,03,23,01,04,4.60
2012,03,23,01,05,4.60
2012,03,23,01,06,4.60
2012,03,23,01,07,4.60
2012,03,23,01,08,4.60
2012,03,23,01,09,4.60
2012,03,23,01,10,4.60
2012,03,23,01,11,4.60
2012,03,23,01,12,4.60
2012,03,23,01,13,4.60
2012,03,23,01,14,4.60
2012,03,23,01,15,4.60
2012,03,23,01,16,4.60
2012,03,23,01,17,4.60
2012,03,23,01,18,4.60
2012,03,23,01,19,4.60
2012,03,23,01,20,4.60
2012,03,23,01,21,4.50
2012,03,23,01,22,4.50
2012,03,23,01,23,4.50
2012,03,23,01,24,4.50
2012,03,23,01,25,4.50
2012,03,23,01,26,4.50
2012,03,23,01,27,4.50
2012,03,23,01,28,4.50
2012,03,23,01,29,4.50
2012,03,23,01,30,4.50
2012,03,23,01,31,4.50
2012,03,23,01,32,4.50
2012,03,23,01,33,4.50
2012,03,23,01,34,4.50
2012,03,23,01,35,4.50
2012,03,23,01,36,4.50
2012,03,23,01,37,4.50
2012,03,23,01,38,4.50
2012,03,23,01,39,4.50
2012,03,23,01,40,4.40
2012,03,23,01,41,4.40
2012,03,23,01,42,4.40
2012,03,23,01,43,4.40
2012,03,23,01,44,4.40
2012,03,23,01,45,4.40
2012,03,23,01,46,4.40
2012,03,23,01,47,4.40
2012,03,23,01,48,4.40
2012,03,23,01,49,4.40
2012,03,23,01,50,4.40
2012,03,23,01,51,4.40
2012,03,23,01,52,4.40
2012,03,23,01,53,4.40
2012,03,23,01,54,4.40
2012,03,23,01,55,4.40
2012,03,23,01,56,4.40
2012,03,23,01,57,4.40
2012,03,23,01,58,4.40
2012,03,23,01,59,4.40
2012,03,23,02,00,4.40
2012,03,23,02,01,4.40
2012,03,23,02,02,4.40
2012,03,23,02,03,4.40
2012,03,23,02,04,4.40
2012,03,23,02,05,4.40
2012,03,23,02,06,4.40
2012,03,23,02,07,4.30
2012,03,23,02,08,4.30
2012,03,23,02,09,4.30
2012,03,23,02,10,4.30
2012,03,23,02,11,4.30
2012,03,23,02,12,4.20
2012,03,23,02,13,4.20
2012,03,23,02,14,4.20
2012,03,23,02,15,4.20
2012,03,23,02,16,4.20
2012,03,23,02,17,4.20
2012,03,23,02,18,4.20
2012,03,23,02,19,4.20
2012,03,23,02,20,4.20
2012,03,23,02,21,4.20
2012,03,23,02,22,4.20
2012,03,23,02,23,4.20
2012,03,23,02,24,4.10
2012,03,23,02,25,4.10
2012,03,23,02,26,4.10
2012,03,23,02,27,4.10
2012,03,23,02,28,4.00
2012,03,23,02,29,4.00
2012,03,23,02,30,4.00
2012,03,23,02,31,4.00
2012,03,23,02,32,4.00
2012,03,23,02,33,4.00
2012,03,23,02,34,4.00
2012,03,23,02,35,4.00
2012,03,23,02,36,4.00
2012,03,23,02,37,4.00
2012,03,23,02,38,4.00
2012,03,23,02,39,4.00
2012,03,23,02,40,4.00
2012,03,23,02,41,4.00
2012,03,23,02,42,4.00
2012,03,23,02,43,4.00
2012,03,23,02,44,4.00
2012,03,23,02,45,4.00
2012,03,23,02,46,4.00
2012,03,23,02,47,4.00
2012,03,23,02,48,4.10
2012,03,23,02,49,4.10
2012,03,23,02,50,4.10
2012,03,23,02,51,4.10
2012,03,23,02,52,4.10
2012,03,23,02,53,4.00
2012,03,23,02,54,4.10
2012,03,23,02,55,4.10
2012,03,23,02,56,4.10
2012,03,23,02,57,4.10
2012,03,23,02,58,4.10
2012,03,23,02,59,4.10
2012,03,23,03,00,4.10
2012,03,23,03,01,4.10
2012,03,23,03,02,4.20
2012,03,23,03,03,4.20
2012,03,23,03,04,4.20
2012,03,23,03,05,4.20
2012,03,23,03,06,4.10
2012,03,23,03,07,4.10
2012,03,23,03,08,4.10
2012,03,23,03,09,4.10
2012,03,23,03,10,4.10
2012,03,23,03,11,4.10
2012,03,23,03,12,4.10
2012,03,23,03,13,4.10
2012,03,23,03,14,4.00
2012,03,23,03,15,4.00
2012,03,23,03,16,4.00
2012,03,23,03,17,4.00
2012,03,23,03,18,4.00
2012,03,23,03,19,4.00
2012,03,23,03,20,3.90
2012,03,23,03,21,3.90
2012,03,23,03,22,3.90
2012,03,23,03,23,3.90
2012,03,23,03,24,3.90
2012,03,23,03,25,3.90
2012,03,23,03,26,3.90
2012,03,23,03,27,3.80
2012,03,23,03,28,3.80
2012,03,23,03,29,3.80
2012,03,23,03,30,3.80
2012,03,23,03,31,3.80
2012,03,23,03,32,3.70
2012,03,23,03,33,3.70
2012,03,23,03,34,3.70
2012,03,23,03,35,3.70
2012,03,23,03,36,3.60
2012,03,23,03,37,3.60
2012,03,23,03,38,3.60
2012,03,23,03,39,3.50
2012,03,23,03,40,3.50
2012,03,23,03,41,3.40
2012,03,23,03,42,3.40
2012,03,23,03,43,3.40
2012,03,23,03,44,3.40
2012,03,23,03,45,3.40
2012,03,23,03,46,3.30
2012,03,23,03,47,3.30
2012,03,23,03,48,3.30
2012,03,23,03,49,3.30
2012,03,23,03,50,3.30
2012,03,23,03,51,3.20
2012,03,23,03,52,3.20
2012,03,23,03,53,3.20
2012,03,23,03,54,3.10
2012,03,23,03,55,3.10
2012,03,23,03,56,3.10
2012,03,23,03,57,3.10
2012,03,23,03,58,3.10
2012,03,23,03,59,3.10
2012,03,23,04,00,3.10
2012,03,23,04,01,3.20
2012,03,23,04,02,3.20
2012,03,23,04,03,3.20
2012,03,23,04,04,3.20
2012,03,23,04,05,3.20
2012,03,23,04,06,3.30
2012,03,23,04,07,3.30
2012,03,23,04,08,3.30
2012,03,23,04,09,3.30
2012,03,23,04,10,3.30
2012,03,23,04,11,3.30
2012,03,23,04,12,3.30
2012,03,23,04,13,3.30
2012,03,23,04,14,3.30
2012,03,23,04,15,3.30
2012,03,23,04,16,3.30
2012,03,23,04,17,3.20
2012,03,23,04,18,3.20
2012,03,23,04,19,3.20
2012,03,23,04,20,3.20
2012,03,23,04,21,3.20
2012,03,23,04,22,3.20
2012,03,23,04,23,3.20
2012,03,23,04,24,3.20
2012,03,23,04,25,3.20
2012,03,23,04,26,3.20
2012,03,23,04,27,3.20
2012,03,23,04,28,3.10
2012,03,23,04,29,3.10
2012,03,23,04,30,3.00
2012,03,23,04,31,2.90
2012,03,23,04,32,2.80
2012,03,23,04,33,2.80
2012,03,23,04,34,2.70
2012,03,23,04,35,2.70
2012,03,23,04,36,2.60
2012,03,23,04,37,2.50
2012,03,23,04,38,2.50
2012,03,23,04,39,2.50
2012,03,23,04,40,2.50
2012,03,23,04,41,2.50
2012,03,23,04,42,2.50
2012,03,23,04,43,2.50
2012,03,23,04,44,2.50
2012,03,23,04,45,2.50
2012,03,23,04,46,2.50
2012,03,23,04,47,2.50
2012,03,23,04,48,2.50
2012,03,23,04,49,2.50
2012,03,23,04,50,2.50
2012,03,23,04,51,2.40
2012,03,23,04,52,2.30
2012,03,23,04,53,2.20
2012,03,23,04,54,2.10
2012,03,23,04,55,2.10
2012,03,23,04,56,2.10
2012,03,23,04,57,2.00
2012,03,23,04,58,2.10
2012,03,23,04,59,2.10
2012,03,23,05,00,2.20
2012,03,23,05,01,2.20
2012,03,23,05,02,2.30
2012,03,23,05,03,2.30
2012,03,23,05,04,2.40
2012,03,23,05,05,2.50
2012,03,23,05,06,2.60
2012,03,23,05,07,2.60
2012,03,23,05,08,2.60
2012,03,23,05,09,2.50
2012,03,23,05,10,2.50
2012,03,23,05,11,2.50
2012,03,23,05,12,2.50
2012,03,23,05,13,2.50
2012,03,23,05,14,2.50
2012,03,23,05,15,2.60
2012,03,23,05,16,2.60
2012,03,23,05,17,2.50
2012,03,23,05,18,2.50
2012,03,23,05,19,2.60
2012,03,23,05,20,2.60
2012,03,23,05,21,2.50
2012,03,23,05,22,2.50
2012,03,23,05,23,2.40
2012,03,23,05,24,2.40
2012,03,23,05,25,2.40
2012,03,23,05,26,2.30
2012,03,23,05,27,2.30
2012,03,23,05,28,2.20
2012,03,23,05,29,2.20
2012,03,23,05,30,2.20
2012,03,23,05,31,2.10
2012,03,23,05,32,2.10
2012,03,23,05,33,2.10
2012,03,23,05,34,2.00
2012,03,23,05,35,1.90
2012,03,23,05,36,1.90
2012,03,23,05,37,1.90
2012,03,23,05,38,1.80
2012,03,23,05,39,1.80
2012,03,23,05,40,1.80
2012,03,23,05,41,1.80
2012,03,23,05,42,1.80
2012,03,23,05,43,1.80
2012,03,23,05,44,1.80
2012,03,23,05,45,1.80
2012,03,23,05,46,1.80
2012,03,23,05,47,1.80
2012,03,23,05,48,1.70
2012,03,23,05,49,1.70
2012,03,23,05,50,1.70
2012,03,23,05,51,1.60
2012,03,23,05,52,1.60
2012,03,23,05,53,1.60
2012,03,23,05,54,1.50
2012,03,23,05,55,1.50
2012,03,23,05,56,1.40
2012,03,23,05,57,1.40
2012,03,23,05,58,1.40
2012,03,23,05,59,1.30
2012,03,23,06,00,1.30
2012,03,23,06,01,1.30
2012,03,23,06,02,1.30
2012,03,23,06,03,1.30
2012,03,23,06,04,1.30
2012,03,23,06,05,1.30
2012,03,23,06,06,1.30
2012,03,23,06,07,1.30
2012,03,23,06,08,1.30
2012,03,23,06,09,1.30
2012,03,23,06,10,1.30
2012,03,23,06,11,1.30
2012,03,23,06,12,1.30
2012,03,23,06,13,1.30
2012,03,23,06,14,1.30
2012,03,23,06,15,1.20
2012,03,23,06,16,1.20
2012,03,23,06,17,1.10
2012,03,23,06,18,1.10
2012,03,23,06,19,1.10
2012,03,23,06,20,1.00
2012,03,23,06,21,1.00
2012,03,23,06,22,0.90
2012,03,23,06,23,0.90
2012,03,23,06,24,0.90
2012,03,23,06,25,0.90
2012,03,23,06,26,0.90
2012,03,23,06,27,0.90
2012,03,23,06,28,0.90
2012,03,23,06,29,0.90
2012,03,23,06,30,0.90
2012,03,23,06,31,0.90
2012,03,23,06,32,0.80
2012,03,23,06,33,0.90
2012,03,23,06,34,0.90
2012,03,23,06,35,0.90
2012,03,23,06,36,0.90
2012,03,23,06,37,0.90
2012,03,23,06,38,0.90
2012,03,23,06,39,0.90
2012,03,23,06,40,0.90
2012,03,23,06,41,0.90
2012,03,23,06,42,0.90
2012,03,23,06,43,0.90
2012,03,23,06,44,0.90
2012,03,23,06,45,0.90
2012,03,23,06,46,0.90
2012,03,23,06,47,0.90
2012,03,23,06,48,0.80
2012,03,23,06,49,0.80
2012,03,23,06,50,0.70
2012,03,23,06,51,0.70
2012,03,23,06,52,0.60
2012,03,23,06,53,0.50
2012,03,23,06,54,0.40
2012,03,23,06,55,0.40
2012,03,23,06,56,0.30
2012,03,23,06,57,0.20
2012,03,23,06,58,0.20
2012,03,23,06,59,0.10
2012,03,23,07,00,0.10
2012,03,23,07,01,0.10
2012,03,23,07,02,0.10
2012,03,23,07,03,0.10
2012,03,23,07,04,0.10
2012,03,23,07,05,0.10
2012,03,23,07,06,0.10
2012,03,23,07,07,0.10
2012,03,23,07,08,0.10
2012,03,23,07,09,0.10
2012,03,23,07,10,0.10
2012,03,23,07,11,0.10
2012,03,23,07,12,0.10
2012,03,23,07,13,0.20
2012,03,23,07,14,0.20
2012,03,23,07,15,0.20
2012,03,23,07,16,0.20
2012,03,23,07,17,0.30
2012,03,23,07,18,0.30
2012,03,23,07,19,0.30
2012,03,23,07,20,0.30
2012,03,23,07,21,0.30
2012,03,23,07,22,0.30
2012,03,23,07,23,0.30
2012,03,23,07,24,0.20
2012,03,23,07,25,0.20
2012,03,23,07,26,0.20
2012,03,23,07,27,0.20
2012,03,23,07,28,0.20
2012,03,23,07,29,0.10
2012,03,23,07,30,0.10
2012,03,23,07,31,0.10
2012,03,23,07,32,0.10
2012,03,23,07,33,0.10
2012,03,23,07,34,0.10
2012,03,23,07,35,0.10
2012,03,23,07,36,0.10
2012,03,23,07,37,0.10
2012,03,23,07,38,0.10
2012,03,23,07,39,0.10
2012,03,23,07,40,0.10
2012,03,23,07,41,0.10
2012,03,23,07,42,0.20
2012,03,23,07,43,0.30
2012,03,23,07,44,0.30
2012,03,23,07,45,0.40
2012,03,23,07,46,0.40
2012,03,23,07,47,0.40
2012,03,23,07,48,0.50
2012,03,23,07,49,0.60
2012,03,23,07,50,0.60
2012,03,23,07,51,0.70
2012,03,23,07,52,0.90
2012,03,23,07,53,1.00
2012,03,23,07,54,1.10
2012,03,23,07,55,1.20
2012,03,23,07,56,1.30
2012,03,23,07,57,1.30
2012,03,23,07,58,1.40
2012,03,23,07,59,1.50
2012,03,23,08,00,1.50
2012,03,23,08,01,1.50
2012,03,23,08,02,1.60
2012,03,23,08,03,1.60
2012,03,23,08,04,1.60
2012,03,23,08,05,1.60
2012,03,23,08,06,1.70
2012,03,23,08,07,1.70
2012,03,23,08,08,1.80
2012,03,23,08,09,1.80
2012,03,23,08,10,1.80
2012,03,23,08,11,1.80
2012,03,23,08,12,1.90
2012,03,23,08,13,2.00
2012,03,23,08,14,2.00
2012,03,23,08,15,2.10
2012,03,23,08,16,2.20
2012,03,23,08,17,2.20
2012,03,23,08,18,2.20
2012,03,23,08,19,2.30
2012,03,23,08,20,2.30
2012,03,23,08,21,2.40
2012,03,23,08,22,2.40
2012,03,23,08,23,2.50
2012,03,23,08,24,2.50
2012,03,23,08,25,2.50
2012,03,23,08,26,2.60
2012,03,23,08,27,2.60
2012,03,23,08,28,2.70
2012,03,23,08,29,2.70
2012,03,23,08,30,2.70
2012,03,23,08,31,2.70
2012,03,23,08,32,2.70
2012,03,23,08,33,2.70
2012,03,23,08,34,2.80
2012,03,23,08,35,2.80
2012,03,23,08,36,2.80
2012,03,23,08,37,2.80
2012,03,23,08,38,2.90
2012,03,23,08,39,2.90
2012,03,23,08,40,2.90
2012,03,23,08,41,2.90
2012,03,23,08,42,2.90
2012,03,23,08,43,2.90
2012,03,23,08,44,2.90
2012,03,23,08,45,2.90
2012,03,23,08,46,3.00
2012,03,23,08,47,3.10
2012,03,23,08,48,3.10
2012,03,23,08,49,3.10
2012,03,23,08,50,3.10
2012,03,23,08,51,3.10
2012,03,23,08,52,3.10
2012,03,23,08,53,3.10
2012,03,23,08,54,3.10
2012,03,23,08,55,3.10
2012,03,23,08,56,3.20
2012,03,23,08,57,3.20
2012,03,23,08,58,3.30
2012,03,23,08,59,3.30
2012,03,23,09,00,3.30
2012,03,23,09,01,3.30
2012,03,23,09,02,3.40
2012,03,23,09,03,3.40
2012,03,23,09,04,3.40
2012,03,23,09,05,3.40
2012,03,23,09,06,3.50
2012,03,23,09,07,3.50
2012,03,23,09,08,3.50
2012,03,23,09,09,3.60
2012,03,23,09,10,3.60
2012,03,23,09,11,3.60
2012,03,23,09,12,3.60
2012,03,23,09,13,3.70
2012,03,23,09,14,3.70
2012,03,23,09,15,3.70
2012,03,23,09,16,3.80
2012,03,23,09,17,3.80
2012,03,23,09,18,3.80
2012,03,23,09,19,3.80
2012,03,23,09,20,3.80
2012,03,23,09,21,3.80
2012,03,23,09,22,3.80
2012,03,23,09,23,3.80
2012,03,23,09,24,3.80
2012,03,23,09,25,3.80
2012,03,23,09,26,3.80
2012,03,23,09,27,3.80
2012,03,23,09,28,3.80
2012,03,23,09,29,3.90
2012,03,23,09,30,3.90
2012,03,23,09,31,3.90
2012,03,23,09,32,3.90
2012,03,23,09,33,3.90
2012,03,23,09,34,4.00
2012,03,23,09,35,4.00
2012,03,23,09,36,4.00
2012,03,23,09,37,4.00
2012,03,23,09,38,4.00
2012,03,23,09,39,4.00
2012,03,23,09,40,4.00
2012,03,23,09,41,4.00
2012,03,23,09,42,4.00
2012,03,23,09,43,4.00
2012,03,23,09,44,4.10
2012,03,23,09,45,4.10
2012,03,23,09,46,4.10
2012,03,23,09,47,4.10
2012,03,23,09,48,4.10
2012,03,23,09,49,4.10
2012,03,23,09,50,4.10
2012,03,23,09,51,4.20
2012,03,23,09,52,4.20
2012,03,23,09,53,4.20
2012,03,23,09,54,4.20
2012,03,23,09,55,4.20
2012,03,23,09,56,4.20
2012,03,23,09,57,4.20
2012,03,23,09,58,4.20
2012,03,23,09,59,4.20
2012,03,23,10,00,4.30
2012,03,23,10,01,4.30
2012,03,23,10,02,4.30
2012,03,23,10,03,4.30
2012,03,23,10,04,4.40
2012,03,23,10,05,4.40
2012,03,23,10,06,4.50
2012,03,23,10,07,4.50
2012,03,23,10,08,4.50
2012,03,23,10,09,4.50
2012,03,23,10,10,4.50
2012,03,23,10,11,4.60
2012,03,23,10,12,4.60
2012,03,23,10,13,4.60
2012,03,23,10,14,4.60
2012,03,23,10,15,4.60
2012,03,23,10,16,4.70
2012,03,23,10,17,4.70
2012,03,23,10,18,4.70
2012,03,23,10,19,4.80
2012,03,23,10,20,4.80
2012,03,23,10,21,4.90
2012,03,23,10,22,4.90
2012,03,23,10,23,4.90
2012,03,23,10,24,4.90
2012,03,23,10,25,4.90
2012,03,23,10,26,4.90
2012,03,23,10,27,4.90
2012,03,23,10,28,4.90
2012,03,23,10,29,4.90
2012,03,23,10,30,5.00
2012,03,23,10,31,5.10
2012,03,23,10,32,5.10
2012,03,23,10,33,5.10
2012,03,23,10,34,5.00
2012,03,23,10,35,5.00
2012,03,23,10,36,5.10
2012,03,23,10,37,5.10
2012,03,23,10,38,5.10
2012,03,23,10,39,5.10
2012,03,23,10,40,5.10
2012,03,23,10,41,5.00
2012,03,23,10,42,5.00
2012,03,23,10,43,5.10
2012,03,23,10,44,5.10
2012,03,23,10,45,5.10
2012,03,23,10,46,5.10
2012,03,23,10,47,5.10
2012,03,23,10,48,5.10
2012,03,23,10,49,5.10
2012,03,23,10,50,5.10
2012,03,23,10,51,5.10
2012,03,23,10,52,5.10
2012,03,23,10,53,5.10
2012,03,23,10,54,5.10
2012,03,23,10,55,5.20
2012,03,23,10,56,5.20
2012,03,23,10,57,5.20
2012,03,23,10,58,5.30
2012,03,23,10,59,5.30
2012,03,23,11,00,5.30
2012,03,23,11,01,5.30
2012,03,23,11,02,5.40
2012,03,23,11,03,5.40
2012,03,23,11,04,5.50
2012,03,23,11,05,5.50
2012,03,23,11,06,5.50
2012,03,23,11,07,5.50
2012,03,23,11,08,5.50
2012,03,23,11,09,5.50
2012,03,23,11,10,5.40
2012,03,23,11,11,5.40
2012,03,23,11,12,5.40
2012,03,23,11,13,5.50
2012,03,23,11,14,5.50
2012,03,23,11,15,5.50
2012,03,23,11,16,5.50
2012,03,23,11,17,5.50
2012,03,23,11,18,5.50
2012,03,23,11,19,5.50
2012,03,23,11,20,5.50
2012,03,23,11,21,5.50
2012,03,23,11,22,5.50
2012,03,23,11,23,5.50
2012,03,23,11,24,5.50
2012,03,23,11,25,5.50
2012,03,23,11,26,5.60
2012,03,23,11,27,5.70
2012,03,23,11,28,5.70
2012,03,23,11,29,5.70
2012,03,23,11,30,5.70
2012,03,23,11,31,5.70
2012,03,23,11,32,5.70
2012,03,23,11,33,5.70
2012,03,23,11,34,5.70
2012,03,23,11,35,5.70
2012,03,23,11,36,5.80
2012,03,23,11,37,5.80
2012,03,23,11,38,5.80
2012,03,23,11,39,5.90
2012,03,23,11,40,5.90
2012,03,23,11,41,5.90
2012,03,23,11,42,6.00
2012,03,23,11,43,6.00
2012,03,23,11,44,6.00
2012,03,23,11,45,6.10
2012,03,23,11,46,6.10
2012,03,23,11,47,6.20
2012,03,23,11,48,6.10
2012,03,23,11,49,6.10
2012,03,23,11,50,6.10
2012,03,23,11,51,6.20
2012,03,23,11,52,6.20
2012,03,23,11,53,6.10
2012,03,23,11,54,6.10
2012,03,23,11,55,6.10
2012,03,23,11,56,6.10
2012,03,23,11,57,6.20
2012,03,23,11,58,6.10
2012,03,23,11,59,6.10
2012,03,23,12,00,6.10
2012,03,23,12,01,6.10
2012,03,23,12,02,6.20
2012,03,23,12,03,6.20
2012,03,23,12,04,6.20
2012,03,23,12,05,6.20
2012,03,23,12,06,6.20
2012,03,23,12,07,6.30
2012,03,23,12,08,6.40
2012,03,23,12,09,6.40
2012,03,23,12,10,6.40
2012,03,23,12,11,6.40
2012,03,23,12,12,6.40
2012,03,23,12,13,6.40
2012,03,23,12,14,6.40
2012,03,23,12,15,6.60
2012,03,23,12,16,6.60
2012,03,23,12,17,6.60
2012,03,23,12,18,6.70
2012,03,23,12,19,6.70
2012,03,23,12,20,6.60
2012,03,23,12,21,6.60
2012,03,23,12,22,6.60
2012,03,23,12,23,6.70
2012,03,23,12,24,6.70
2012,03,23,12,25,6.70
2012,03,23,12,26,6.70
2012,03,23,12,27,6.60
2012,03,23,12,28,6.60
2012,03,23,12,29,6.60
2012,03,23,12,30,6.60
2012,03,23,12,31,6.80
2012,03,23,12,32,6.80
2012,03,23,12,33,6.80
2012,03,23,12,34,6.80
2012,03,23,12,35,6.80
2012,03,23,12,36,6.70
2012,03,23,12,37,6.70
2012,03,23,12,38,6.80
2012,03,23,12,39,6.80
2012,03,23,12,40,6.80
2012,03,23,12,41,6.90
2012,03,23,12,42,6.90
2012,03,23,12,43,6.90
2012,03,23,12,44,6.90
2012,03,23,12,45,6.90
2012,03,23,12,46,6.90
2012,03,23,12,47,6.90
2012,03,23,12,48,7.00
2012,03,23,12,49,7.00
2012,03,23,12,50,7.10
2012,03,23,12,51,7.10
2012,03,23,12,52,7.10
2012,03,23,12,53,7.10
2012,03,23,12,54,7.10
2012,03,23,12,55,7.10
2012,03,23,12,56,7.20
2012,03,23,12,57,7.30
2012,03,23,12,58,7.20
2012,03,23,12,59,7.20
2012,03,23,13,00,7.20
2012,03,23,13,01,7.20
2012,03,23,13,02,7.10
2012,03,23,13,03,7.10
2012,03,23,13,04,7.10
2012,03,23,13,05,7.10
2012,03,23,13,06,7.10
2012,03,23,13,07,7.10
2012,03,23,13,08,7.10
2012,03,23,13,09,7.20
2012,03,23,13,10,7.20
2012,03,23,13,11,7.20
2012,03,23,13,12,7.30
2012,03,23,13,13,7.30
2012,03,23,13,14,7.30
2012,03,23,13,15,7.30
2012,03,23,13,16,7.30
2012,03,23,13,17,7.40
2012,03,23,13,18,7.40
2012,03,23,13,19,7.50
2012,03,23,13,20,7.40
2012,03,23,13,21,7.40
2012,03,23,13,22,7.30
2012,03,23,13,23,7.30
2012,03,23,13,24,7.30
2012,03,23,13,25,7.30
2012,03,23,13,26,7.30
2012,03,23,13,27,7.40
2012,03,23,13,28,7.40
2012,03,23,13,29,7.50
2012,03,23,13,30,7.60
2012,03,23,13,31,7.50
2012,03,23,13,32,7.50
2012,03,23,13,33,7.40
2012,03,23,13,34,7.30
2012,03,23,13,35,7.40
2012,03,23,13,36,7.40
2012,03,23,13,37,7.50
2012,03,23,13,38,7.50
2012,03,23,13,39,7.50
2012,03,23,13,40,7.50
2012,03,23,13,41,7.50
2012,03,23,13,42,7.60
2012,03,23,13,43,7.70
2012,03,23,13,44,7.70
2012,03,23,13,45,7.80
2012,03,23,13,46,7.80
2012,03,23,13,47,7.80
2012,03,23,13,48,7.80
2012,03,23,13,49,7.80
2012,03,23,13,50,7.70
2012,03,23,13,51,7.70
2012,03,23,13,52,7.70
2012,03,23,13,53,7.70
2012,03,23,13,54,7.70
2012,03,23,13,55,7.60
2012,03,23,13,56,7.60
2012,03,23,13,57,7.60
2012,03,23,13,58,7.60
2012,03,23,13,59,7.60
2012,03,23,14,00,7.70
2012,03,23,14,01,7.70
2012,03,23,14,02,7.70
2012,03,23,14,03,7.70
2012,03,23,14,04,7.70
2012,03,23,14,05,7.70
2012,03,23,14,06,7.70
2012,03,23,14,07,7.70
2012,03,23,14,08,7.70
2012,03,23,14,09,7.80
2012,03,23,14,10,7.90
2012,03,23,14,11,7.90
2012,03,23,14,12,7.90
2012,03,23,14,13,7.90
2012,03,23,14,14,7.90
2012,03,23,14,15,7.80
2012,03,23,14,16,7.80
2012,03,23,14,17,7.80
2012,03,23,14,18,7.80
2012,03,23,14,19,7.80
2012,03,23,14,20,7.90
2012,03,23,14,21,7.90
2012,03,23,14,22,7.90
2012,03,23,14,23,8.00
2012,03,23,14,24,8.00
2012,03,23,14,25,8.00
2012,03,23,14,26,8.10
2012,03,23,14,27,8.10
2012,03,23,14,28,8.20
2012,03,23,14,29,8.20
2012,03,23,14,30,8.30
2012,03,23,14,31,8.40
2012,03,23,14,32,8.40
2012,03,23,14,33,8.40
2012,03,23,14,34,8.30
2012,03,23,14,35,8.30
2012,03,23,14,36,8.30
2012,03,23,14,37,8.30
2012,03,23,14,38,8.40
2012,03,23,14,39,8.40
2012,03,23,14,40,8.30
2012,03,23,14,41,8.20
2012,03,23,14,42,8.20
2012,03,23,14,43,8.20
2012,03,23,14,44,8.20
2012,03,23,14,45,8.20
2012,03,23,14,46,8.20
2012,03,23,14,47,8.30
2012,03,23,14,48,8.40
2012,03,23,14,49,8.40
2012,03,23,14,50,8.40
2012,03,23,14,51,8.40
2012,03,23,14,52,8.40
2012,03,23,14,53,8.40
2012,03,23,14,54,8.40
2012,03,23,14,55,8.40
2012,03,23,14,56,8.40
2012,03,23,14,57,8.40
2012,03,23,14,58,8.50
2012,03,23,14,59,8.50
2012,03,23,15,00,8.50
2012,03,23,15,01,8.60
2012,03,23,15,02,8.60
2012,03,23,15,03,8.70
2012,03,23,15,04,8.60
2012,03,23,15,05,8.60
2012,03,23,15,06,8.70
2012,03,23,15,07,8.70
2012,03,23,15,08,8.60
2012,03,23,15,09,8.60
2012,03,23,15,10,8.50
2012,03,23,15,11,8.60
2012,03,23,15,12,8.50
2012,03,23,15,13,8.60
2012,03,23,15,14,8.60
2012,03,23,15,15,8.50
2012,03,23,15,16,8.50
2012,03,23,15,17,8.40
2012,03,23,15,18,8.40
2012,03,23,15,19,8.50
2012,03,23,15,20,8.50
2012,03,23,15,21,8.60
2012,03,23,15,22,8.60
2012,03,23,15,23,8.60
2012,03,23,15,24,8.70
2012,03,23,15,25,8.70
2012,03,23,15,26,8.70
2012,03,23,15,27,8.70
2012,03,23,15,28,8.70
2012,03,23,15,29,8.70
2012,03,23,15,30,8.70
2012,03,23,15,31,8.70
2012,03,23,15,32,8.70
2012,03,23,15,33,8.70
2012,03,23,15,34,8.70
2012,03,23,15,35,8.70
2012,03,23,15,36,8.80
2012,03,23,15,37,8.80
2012,03,23,15,38,8.80
2012,03,23,15,39,8.90
2012,03,23,15,40,8.90
2012,03,23,15,41,8.90
2012,03,23,15,42,9.00
2012,03,23,15,43,9.00
2012,03,23,15,44,9.00
2012,03,23,15,45,9.10
2012,03,23,15,46,9.20
2012,03,23,15,47,9.20
2012,03,23,15,48,9.10
2012,03,23,15,49,9.10
2012,03,23,15,50,9.00
2012,03,23,15,51,9.00
2012,03,23,15,52,8.90
2012,03,23,15,53,8.90
2012,03,23,15,54,8.90
2012,03,23,15,55,8.80
2012,03,23,15,56,8.70
2012,03,23,15,57,8.70
2012,03,23,15,58,8.80
2012,03,23,15,59,8.90
2012,03,23,16,00,8.90
2012,03,23,16,01,8.90
2012,03,23,16,02,8.90
2012,03,23,16,03,8.90
2012,03,23,16,04,8.90
2012,03,23,16,05,9.00
2012,03,23,16,06,9.00
2012,03,23,16,07,9.00
2012,03,23,16,08,9.00
2012,03,23,16,09,9.00
2012,03,23,16,10,9.10
2012,03,23,16,11,9.10
2012,03,23,16,12,9.20
2012,03,23,16,13,9.20
2012,03,23,16,14,9.20
2012,03,23,16,15,9.20
2012,03,23,16,16,9.20
2012,03,23,16,17,9.20
2012,03,23,16,18,9.30
2012,03,23,16,19,9.30
2012,03,23,16,20,9.30
2012,03,23,16,21,9.30
2012,03,23,16,22,9.30
2012,03,23,16,23,9.40
2012,03,23,16,24,9.40
2012,03,23,16,25,9.40
2012,03,23,16,26,9.30
2012,03,23,16,27,9.30
2012,03,23,16,28,9.30
2012,03,23,16,29,9.30
2012,03,23,16,30,9.30
2012,03,23,16,31,9.40
2012,03,23,16,32,9.30
2012,03,23,16,33,9.30
2012,03,23,16,34,9.30
2012,03,23,16,35,9.40
2012,03,23,16,36,9.40
2012,03,23,16,37,9.40
2012,03,23,16,38,9.40
2012,03,23,16,39,9.40
2012,03,23,16,40,9.50
2012,03,23,16,41,9.50
2012,03,23,16,42,9.50
2012,03,23,16,43,9.50
2012,03,23,16,44,9.50
2012,03,23,16,45,9.50
2012,03,23,16,46,9.50
2012,03,23,16,47,9.40
2012,03,23,16,48,9.40
2012,03,23,16,49,9.30
2012,03,23,16,50,9.30
2012,03,23,16,51,9.20
2012,03,23,16,52,9.20
2012,03,23,16,53,9.20
2012,03,23,16,54,9.20
2012,03,23,16,55,9.20
2012,03,23,16,56,9.20
2012,03,23,16,57,9.30
2012,03,23,16,58,9.30
2012,03,23,16,59,9.30
2012,03,23,17,00,9.30
2012,03,23,17,01,9.30
2012,03,23,17,02,9.20
2012,03,23,17,03,9.20
2012,03,23,17,04,9.20
2012,03,23,17,05,9.20
2012,03,23,17,06,9.20
2012,03,23,17,07,9.20
2012,03,23,17,08,9.20
2012,03,23,17,09,9.10
2012,03,23,17,10,9.10
2012,03,23,17,11,9.10
2012,03,23,17,12,9.10
2012,03,23,17,13,9.10
2012,03,23,17,14,9.10
2012,03,23,17,15,9.10
2012,03,23,17,16,9.10
2012,03,23,17,17,9.10
2012,03,23,17,18,9.20
2012,03,23,17,19,9.20
2012,03,23,17,20,9.20
2012,03,23,17,21,9.20
2012,03,23,17,22,9.30
2012,03,23,17,23,9.30
2012,03,23,17,24,9.20
2012,03,23,17,25,9.20
2012,03,23,17,26,9.20
2012,03,23,17,27,9.20
2012,03,23,17,28,9.20
2012,03,23,17,29,9.20
2012,03,23,17,30,9.20
2012,03,23,17,31,9.20
2012,03,23,17,32,9.20
2012,03,23,17,33,9.20
2012,03,23,17,34,9.20
2012,03,23,17,35,9.20
2012,03,23,17,36,9.20
2012,03,23,17,37,9.20
2012,03,23,17,38,9.20
2012,03,23,17,39,9.20
2012,03,23,17,40,9.20
2012,03,23,17,41,9.20
2012,03,23,17,42,9.20
2012,03,23,17,43,9.10
2012,03,23,17,44,9.10
2012,03,23,17,45,9.10
2012,03,23,17,46,9.10
2012,03,23,17,47,9.10
2012,03,23,17,48,9.20
2012,03,23,17,49,9.20
2012,03,23,17,50,9.20
2012,03,23,17,51,9.20
2012,03,23,17,52,9.20
2012,03,23,17,53,9.20
2012,03,23,17,54,9.20
2012,03,23,17,55,9.20
2012,03,23,17,56,9.20
2012,03,23,17,57,9.20
2012,03,23,17,58,9.10
2012,03,23,17,59,9.00
2012,03,23,18,00,9.00
2012,03,23,18,01,9.00
2012,03,23,18,02,9.00
2012,03,23,18,03,9.00
2012,03,23,18,04,8.90
2012,03,23,18,05,8.90
2012,03,23,18,06,8.90